Wind_Speed
12 11 10 9 6 4 6 3 2 3 3 3 4 3 1 3 5 5 10 17 18 16 14 12 11 12 13 14 15 13 11 11 13 10 11 12 15 15 14 16 17 16 14 14 16 17 16 17 17
9 12 8 9 7 8 8 5 3 3 2 2 1 3 3 3 7 5 11 23 17 18 17 14 12 15 16 15 15 13 11 11 11 10 11 13 13 14 13 15 16 15 14 16 17 16 16 17 16
11 9 8 8 10 13 13 10 4 5 5 3 1 4 7 8 7 12 16 21 20 17 20 17 12 12 14 13 14 12 10 11 11 11 10 12 12 13 15 15 15 14 12 14 14 16 14 17 16
8 8 9 9 13 14 14 14 8 8 6 4 3 6 9 12 12 12 15 18 22 21 22 15 13 12 11 10 10 11 10 10 10 10 10 11 11 12 13 13 12 12 11 13 15 13 13 14 16
9 15 12 12 11 12 12 12 11 10 9 8 6 1 12 15 15 13 12 6 10 14 23 20 16 14 12 11 10 10 11 11 11 11 10 10 9 10 11 11 12 11 10 10 11 13 13 12 12
10 11 8 5 9 12 12 11 9 6 8 8 9 4 12 17 18 19 16 18 9 13 22 20 17 15 12 12 11 10 11 11 9 12 10 9 9 10 11 11 12 11 9 7 7 8 12 13 12
8 11 11 10 9 11 12 10 9 9 6 4 4 3 10 13 15 13 18 17 13 14 14 26 22 17 14 13 11 10 11 11 10 13 10 9 10 9 10 10 8 8 7 6 7 8 9 10 11
8 9 9 10 7 10 12 10 14 10 6 6 7 4 5 11 10 23 23 19 7 9 12 29 20 17 15 14 12 11 12 12 11 11 9 10 8 7 8 8 9 7 6 6 6 7 9 10 10
8 7 9 8 6 10 11 13 14 13 12 8 7 5 5 12 20 19 13 15 13 22 28 21 18 15 15 14 13 12 12 11 11 9 9 8 7 8 11 12 9 7 4 3 4 4 8 8 6
10 10 9 9 9 11 14 16 17 13 12 9 7 4 4 6 17 19 21 17 14 30 26 23 17 15 15 13 12 12 11 10 10 9 7 7 8 8 10 12 13 9 6 8 7 4 3 10 9
10 12 9 8 8 10 14 17 12 12 13 13 5 9 16 15 24 18 14 25 27 25 23 19 17 16 15 14 13 10 9 9 8 6 6 7 8 8 12 13 12 9 9 10 4 4 3 6 7
10 9 11 8 9 10 16 13 10 14 14 13 6 16 19 21 30 25 28 28 24 21 19 18 18 17 15 13 12 10 8 6 7 6 6 7 8 9 12 16 17 12 15 2 5 4 1 4 5
7 10 11 13 10 12 14 11 10 13 14 17 11 15 17 15 24 31 31 26 23 17 15 16 17 16 15 12 10 10 7 6 7 5 6 6 8 8 11 17 19 15 6 6 7 4 2 2 5
5 10 10 14 13 11 11 11 11 13 13 15 15 15 14 16 19 28 28 26 23 17 16 15 15 15 14 13 11 8 8 7 7 5 5 6 9 9 10 14 15 17 14 10 6 5 5 8 6
3 10 11 15 13 10 11 10 15 12 11 13 15 12 13 11 13 14 24 18 15 14 16 16 16 14 12 12 10 8 6 5 5 3 4 6 9 9 9 10 11 15 14 14 13 11 12 13 12
20 21 11 17 11 14 13 11 14 13 9 9 9 9 8 8 12 14 18 14 15 13 15 14 14 14 13 12 9 7 6 4 3 1 5 8 10 6 7 9 9 13 13 15 15 15 13 14 13
28 40 41 24 11 15 16 12 13 13 10 4 2 6 9 10 8 15 18 14 13 14 11 12 13 13 12 10 8 6 6 4 3 3 5 7 8 4 6 7 7 10 10 13 12 11 12 11 10
27 28 30 30 19 16 18 15 16 9 7 5 0 2 6 12 15 9 16 8 7 11 13 12 12 10 10 8 6 6 6 4 2 4 3 6 4 3 4 4 5 5 5 8 8 9 8 9 7
21 22 22 23 20 23 26 22 14 10 4 5 1 3 5 5 10 14 14 13 10 9 9 9 8 7 7 7 6 5 6 1 2 3 2 5 3 1 1 3 3 4 4 5 5 6 7 6 8
13 17 19 17 19 16 18 19 18 13 3 4 4 4 6 8 9 10 12 13 12 9 9 8 8 6 7 7 6 5 3 1 2 1 2 3 3 5 3 2 2 1 2 2 3 4 6 5 9
10 14 13 15 14 12 13 16 14 19 3 1 2 4 7 11 13 13 13 13 13 12 10 10 8 5 6 8 8 5 3 2 2 2 2 2 4 5 4 3 3 2 1 2 2 3 4 5 5
8 10 12 14 14 14 12 11 13 14 12 9 7 9 8 11 15 16 16 15 16 16 15 14 11 9 7 9 8 6 4 3 2 1 2 4 5 6 4 3 2 1 1 1 0 1 2 5 4
4 12 9 14 15 14 16 14 17 16 14 9 8 12 16 12 16 19 18 18 17 15 14 13 12 9 9 9 8 4 3 3 3 3 4 6 6 8 4 2 3 1 4 3 3 3 6 5 5
4 9 10 11 12 15 14 16 20 17 14 13 13 6 18 16 19 20 21 21 20 17 15 14 12 11 9 9 9 6 3 4 5 4 5 5 8 8 4 2 3 3 3 3 3 1 7 7 6
11 10 9 6 7 11 12 16 18 18 12 13 18 10 20 24 20 21 20 22 22 19 17 15 14 13 12 10 7 5 6 5 6 6 6 5 9 11 8 7 3 2 3 4 6 3 8 9 9
13 8 10 2 5 7 10 15 16 18 11 16 4 15 22 24 18 19 20 19 20 19 16 14 13 12 11 9 8 7 7 6 5 7 8 9 10 12 11 9 5 2 3 4 5 4 6 6 6
22 12 8 8 5 7 8 12 15 18 13 22 12 9 14 22 19 16 10 12 13 13 14 12 11 11 9 10 10 9 7 6 7 7 9 11 12 14 14 13 10 8 6 5 5 6 8 9 10
20 18 13 11 7 4 6 10 13 16 12 21 14 7 29 16 12 7 5 7 6 7 10 11 11 12 11 12 11 10 8 7 9 9 11 14 16 17 17 16 13 12 11 9 8 9 10 11 11
20 23 21 16 8 7 4 8 15 14 13 11 11 18 20 13 10 6 5 3 4 4 6 10 12 12 13 15 15 13 10 8 10 11 13 16 17 17 16 16 16 16 16 15 12 10 12 13 13
9 17 18 17 10 6 2 7 11 11 12 18 12 11 14 11 9 2 3 4 6 5 6 9 11 11 15 17 16 18 13 12 13 11 13 17 18 18 16 18 20 20 20 19 19 16 15 17 15
Wind_Direction
88 96 92 75 81 103 88 104 138 143 98 102 112 113 112 194 141 146 218 187 183 176 158 163 162 154 150 141 136 133 129 120 110 98 92 79 72 75 68 67 64 60 60 54 50 51 56 65 65
69 78 76 57 70 70 68 58 55 65 57 61 183 192 189 166 148 130 163 164 192 197 175 178 171 154 148 149 139 132 128 121 112 91 81 79 72 74 63 61 64 55 56 57 54 57 52 62 66
45 63 73 93 75 62 58 55 57 92 87 85 237 224 207 177 146 148 158 175 187 164 177 175 167 153 144 149 140 131 121 120 104 89 75 74 68 67 67 56 58 57 46 52 48 49 58 58 64
36 32 61 85 51 42 46 30 26 35 28 35 92 190 205 192 186 177 182 199 206 191 165 170 159 152 143 144 139 135 121 116 105 91 74 63 59 57 57 59 57 64 56 49 52 53 63 57 68
75 49 66 61 44 47 51 22 26 37 33 15 18 252 197 196 192 194 202 218 212 208 159 168 157 149 143 131 125 123 116 113 112 92 75 61 58 54 53 47 54 56 52 46 43 53 57 59 66
56 63 87 63 48 49 37 26 26 349 357 6 11 217 176 193 193 201 175 216 178 225 173 166 154 146 144 128 130 122 112 112 102 87 72 63 47 40 39 33 40 50 52 49 46 46 57 56 54
97 95 82 72 56 55 43 28 12 30 18 21 29 249 173 170 193 184 180 179 180 247 158 175 149 144 143 134 128 116 107 97 90 79 71 56 42 24 32 25 26 48 57 48 35 31 43 46 57
120 99 90 76 55 51 36 30 31 23 36 35 49 18 130 128 196 198 188 162 200 174 209 152 138 137 135 125 119 119 117 108 90 80 67 57 42 25 22 22 9 24 27 29 30 38 20 58 36
141 124 104 88 70 56 45 49 50 31 22 38 41 28 83 137 193 176 165 206 198 157 141 137 125 132 122 118 124 125 115 97 80 70 67 64 43 18 14 7 349 346 356 21 13 11 34 43 47
123 142 122 96 77 50 48 59 55 45 28 44 59 71 12 172 149 173 189 182 174 148 146 124 130 131 121 121 122 127 118 103 77 64 69 53 42 24 15 2 348 322 325 287 300 262 36 61 48
154 147 143 116 90 84 65 63 54 52 37 38 62 82 49 93 158 160 159 148 148 126 114 128 134 132 129 131 134 129 127 109 80 78 63 57 52 39 30 6 7 348 305 293 271 252 73 61 42
153 142 117 137 109 73 83 72 49 55 46 50 73 93 85 68 150 152 157 130 106 111 123 126 132 135 133 137 129 132 126 110 98 89 73 57 53 45 39 29 29 36 8 300 185 210 72 40 47
135 140 127 152 122 106 83 88 71 65 54 62 114 93 87 76 107 124 123 118 120 120 126 138 137 140 142 138 131 131 139 117 108 101 81 64 57 55 41 33 39 47 43 82 146 119 118 88 80
140 150 129 130 129 114 90 91 92 72 64 70 132 117 110 100 92 109 113 111 107 122 134 141 139 135 137 136 131 147 146 132 124 101 76 36 34 41 37 45 43 48 58 91 97 94 97 112 78
268 224 163 132 117 110 109 92 87 83 69 84 134 121 127 116 118 110 106 113 122 135 142 147 140 133 131 126 142 158 138 118 110 135 75 43 29 29 37 47 57 63 66 77 89 99 93 95 91
38 49 194 126 119 122 105 102 84 76 68 72 121 130 129 123 155 149 114 121 132 137 139 145 152 148 142 139 150 144 131 144 127 75 47 43 31 26 46 54 62 73 78 83 91 91 86 86 77
55 57 53 58 87 108 98 96 76 67 63 40 47 134 147 147 153 134 155 141 146 146 158 161 162 155 146 145 159 155 154 149 158 62 55 52 18 27 56 61 62 72 81 84 87 90 96 91 95
69 68 63 56 68 68 72 91 93 73 70 48 187 211 158 164 165 173 172 180 163 156 166 164 161 149 143 153 167 171 159 165 103 42 49 52 46 29 57 71 72 72 80 90 94 97 101 86 77
61 64 59 68 66 68 59 52 57 85 116 126 36 258 198 204 167 179 191 188 189 184 174 166 155 151 158 170 182 166 174 140 4 49 30 42 75 135 72 85 111 108 104 105 107 108 96 91 91
68 62 60 57 68 74 65 55 32 27 137 169 165 215 237 219 214 206 191 187 188 190 199 183 167 172 174 183 194 191 185 122 359 168 359 76 127 135 165 128 125 147 125 131 127 116 100 98 107
95 77 69 53 41 40 62 62 41 34 74 300 200 228 240 235 231 222 208 192 186 199 200 192 179 183 195 194 194 194 193 248 198 214 107 139 155 163 159 145 154 174 159 116 116 98 113 125 115
116 93 79 50 44 32 45 60 63 47 49 21 297 282 228 230 243 233 216 205 194 193 192 189 186 189 201 196 199 202 209 234 253 242 128 174 190 178 168 172 200 256 292 126 187 115 138 152 146
154 117 75 52 37 39 39 51 49 32 31 32 13 281 258 223 231 242 233 219 211 200 201 191 183 189 202 200 200 205 260 279 289 246 183 194 198 182 193 220 250 280 290 325 328 229 178 178 196
191 138 86 55 51 44 42 46 35 27 4 332 304 291 238 231 223 230 240 227 220 204 204 200 190 193 205 208 199 191 221 265 273 252 213 206 204 194 203 231 275 315 315 310 342 192 177 199 205
212 157 106 56 40 31 31 33 30 17 351 332 302 216 202 229 222 219 229 229 221 218 206 206 199 196 202 198 197 213 221 242 263 248 209 220 215 207 219 239 248 286 293 294 285 229 190 193 200
234 192 134 359 4 4 13 26 15 17 14 9 340 199 197 208 228 224 225 229 229 226 215 216 220 200 199 197 214 220 231 258 275 259 236 223 225 223 227 237 232 253 318 305 282 265 235 231 241
235 212 176 243 324 321 360 10 5 26 29 35 39 196 199 182 210 217 227 237 238 244 243 229 234 228 217 213 219 235 227 250 266 255 247 227 229 231 229 234 244 269 287 312 288 274 269 269 276
212 211 204 223 253 329 2 351 9 34 68 32 49 42 166 159 183 173 185 206 222 242 256 252 232 225 227 228 228 228 240 248 258 257 236 234 236 240 239 236 235 248 270 279 284 282 286 291 289
207 222 211 224 253 284 332 356 357 41 35 55 64 85 119 126 128 113 210 206 194 215 246 253 248 245 240 239 243 233 225 242 260 260 246 230 232 238 248 250 250 251 259 273 280 289 291 295 304
220 219 206 231 237 279 308 3 10 357 41 94 84 104 118 130 141 135 137 242 260 247 245 252 262 262 257 247 243 248 237 235 244 260 258 244 236 235 240 245 251 258 260 270 276 282 292 298 305
Height
5894 5893 5893 5893 5894 5893 5892 5892 5892 5891 5892 5893 5893 5894 5894 5894 5895 5898 5896 5896 5901 5903 5905 5910 5913 5914 5916 5918 5918 5919 5921 5922 5923 5925 5925 5927 5927 5927 5928 5927 5925 5923 5923 5921 5920 5920 5920 5918 5917
5895 5895 5896 5894 5894 5892 5892 5892 5891 5891 5891 5891 5892 5893 5894 5894 5894 5895 5896 5899 5901 5904 5908 5911 5914 5916 5918 5919 5919 5921 5923 5926 5926 5927 5927 5928 5929 5928 5929 5928 5926 5926 5925 5922 5920 5920 5920 5920 5919
5898 5898 5897 5895 5894 5892 5892 5892 5892 5890 5889 5890 5891 5892 5893 5894 5895 5896 5898 5901 5903 5905 5908 5911 5913 5917 5919 5920 5920 5923 5926 5928 5928 5929 5930 5930 5931 5931 5930 5930 5928 5927 5926 5925 5923 5923 5922 5921 5921
5900 5900 5898 5896 5893 5892 5892 5891 5889 5890 5890 5890 5890 5891 5892 5893 5894 5897 5898 5900 5903 5906 5907 5911 5913 5917 5919 5920 5922 5925 5928 5929 5929 5931 5932 5933 5933 5933 5932 5931 5931 5929 5928 5927 5927 5927 5927 5925 5923
5901 5900 5899 5897 5896 5896 5893 5892 5890 5890 5889 5888 5889 5889 5890 5891 5893 5895 5898 5900 5902 5900 5906 5911 5915 5918 5920 5921 5924 5928 5930 5931 5931 5931 5933 5933 5935 5934 5933 5931 5932 5931 5930 5930 5928 5929 5928 5928 5926
5901 5902 5901 5900 5899 5897 5896 5894 5892 5890 5889 5888 5888 5889 5888 5889 5891 5894 5896 5901 5900 5903 5904 5912 5916 5919 5922 5923 5927 5930 5932 5932 5934 5932 5935 5935 5936 5935 5935 5933 5932 5933 5931 5931 5931 5930 5930 5929 5927
5905 5904 5903 5903 5902 5899 5898 5896 5894 5891 5890 5889 5888 5888 5887 5887 5890 5894 5896 5898 5902 5902 5906 5913 5915 5920 5924 5926 5929 5932 5934 5935 5936 5935 5936 5937 5937 5936 5935 5934 5933 5932 5932 5931 5931 5931 5931 5930 5928
5905 5904 5903 5903 5902 5900 5899 5897 5892 5891 5890 5889 5888 5887 5888 5887 5891 5894 5896 5900 5903 5904 5907 5912 5917 5922 5925 5929 5932 5934 5936 5937 5937 5937 5938 5938 5938 5937 5936 5935 5934 5932 5932 5931 5931 5932 5932 5931 5929
5905 5904 5904 5905 5905 5903 5900 5898 5893 5891 5890 5889 5888 5887 5889 5887 5889 5892 5898 5901 5903 5906 5910 5917 5919 5924 5928 5931 5935 5936 5938 5939 5939 5939 5939 5939 5939 5939 5938 5937 5935 5933 5932 5931 5932 5932 5932 5931 5930
5904 5904 5906 5907 5905 5904 5901 5898 5894 5895 5894 5893 5890 5889 5890 5888 5890 5895 5898 5902 5904 5909 5914 5916 5923 5927 5930 5934 5936 5938 5940 5940 5940 5940 5940 5940 5940 5940 5938 5936 5934 5931 5930 5931 5931 5932 5932 5933 5931
5905 5905 5907 5907 5904 5904 5902 5900 5899 5897 5897 5896 5894 5894 5891 5888 5892 5896 5900 5906 5910 5913 5916 5921 5926 5929 5933 5936 5938 5940 5941 5941 5942 5941 5941 5941 5940 5940 5938 5935 5932 5930 5930 5929 5930 5931 5933 5933 5932
5907 5906 5906 5906 5907 5907 5902 5902 5901 5899 5899 5898 5897 5898 5896 5895 5894 5899 5904 5908 5912 5917 5921 5925 5928 5931 5934 5937 5939 5941 5942 5942 5942 5943 5942 5942 5941 5940 5938 5935 5931 5930 5928 5927 5929 5931 5933 5933 5933
5910 5910 5909 5909 5909 5906 5905 5905 5905 5903 5903 5901 5902 5903 5900 5901 5904 5905 5909 5912 5916 5921 5926 5929 5931 5933 5936 5938 5941 5941 5941 5942 5942 5942 5943 5943 5942 5940 5938 5936 5933 5930 5929 5928 5930 5932 5933 5933 5933
5908 5910 5912 5911 5909 5909 5908 5908 5908 5907 5906 5907 5907 5907 5906 5907 5909 5910 5913 5917 5921 5926 5930 5932 5934 5936 5938 5939 5940 5942 5941 5942 5942 5943 5943 5942 5941 5940 5938 5936 5935 5933 5932 5931 5932 5933 5934 5934 5934
5913 5908 5909 5912 5911 5910 5910 5911 5910 5911 5910 5912 5911 5912 5911 5912 5914 5915 5917 5921 5924 5928 5931 5934 5936 5937 5938 5939 5941 5942 5942 5943 5943 5943 5943 5943 5942 5941 5939 5938 5938 5936 5936 5935 5935 5936 5936 5936 5935
5912 5912 5911 5911 5914 5912 5913 5914 5911 5914 5915 5915 5916 5915 5915 5915 5917 5919 5921 5925 5927 5929 5933 5936 5937 5937 5938 5939 5941 5942 5942 5943 5944 5944 5942 5942 5943 5943 5942 5941 5940 5938 5938 5938 5938 5938 5937 5937 5937
5915 5914 5914 5913 5916 5915 5914 5916 5916 5917 5919 5920 5920 5919 5918 5919 5921 5922 5924 5927 5930 5932 5934 5936 5937 5937 5938 5938 5940 5941 5943 5944 5945 5944 5943 5943 5943 5944 5943 5943 5942 5941 5941 5940 5940 5938 5938 5938 5938
5920 5920 5920 5921 5922 5921 5917 5918 5914 5917 5921 5923 5924 5923 5922 5921 5922 5926 5926 5927 5930 5932 5935 5937 5937 5937 5938 5938 5940 5942 5943 5943 5944 5944 5944 5943 5943 5944 5943 5943 5943 5942 5941 5940 5940 5939 5939 5938 5938
5922 5922 5921 5923 5924 5924 5922 5921 5919 5918 5920 5922 5924 5925 5925 5924 5924 5926 5930 5930 5931 5933 5935 5937 5937 5938 5938 5938 5941 5942 5943 5943 5943 5944 5945 5943 5944 5944 5944 5944 5943 5942 5942 5941 5940 5940 5940 5939 5938
5925 5924 5923 5924 5926 5928 5926 5924 5922 5919 5921 5922 5923 5925 5926 5927 5926 5926 5928 5929 5930 5933 5936 5938 5938 5939 5940 5940 5942 5944 5944 5944 5944 5945 5945 5944 5944 5944 5945 5944 5943 5943 5943 5942 5941 5940 5940 5939 5939
5926 5925 5926 5925 5925 5926 5927 5926 5924 5924 5922 5924 5925 5927 5928 5929 5929 5929 5930 5929 5931 5933 5936 5939 5939 5940 5941 5942 5943 5944 5945 5945 5945 5945 5945 5945 5945 5945 5945 5944 5944 5944 5944 5943 5942 5941 5941 5941 5941
5927 5926 5926 5925 5925 5925 5926 5927 5926 5927 5928 5927 5926 5926 5930 5930 5930 5932 5932 5932 5930 5931 5934 5937 5939 5941 5942 5943 5943 5944 5945 5944 5944 5944 5944 5946 5945 5945 5945 5945 5945 5945 5944 5943 5942 5943 5943 5942 5943
5929 5928 5927 5927 5927 5927 5927 5928 5928 5925 5925 5925 5925 5925 5925 5929 5930 5931 5934 5934 5933 5932 5935 5936 5937 5940 5942 5942 5943 5943 5944 5944 5943 5944 5944 5944 5945 5946 5946 5945 5946 5946 5946 5945 5944 5944 5943 5944 5943
5929 5930 5929 5930 5929 5929 5929 5929 5926 5922 5922 5921 5920 5920 5922 5925 5927 5929 5932 5934 5933 5932 5933 5934 5935 5937 5939 5940 5941 5940 5941 5943 5943 5943 5944 5944 5945 5946 5946 5946 5947 5947 5946 5946 5944 5943 5943 5943 5943
5929 5930 5930 5931 5930 5930 5930 5929 5926 5923 5919 5916 5909 5913 5914 5919 5922 5925 5929 5932 5933 5932 5932 5933 5934 5934 5936 5937 5938 5940 5941 5943 5943 5943 5943 5944 5945 5946 5946 5946 5946 5946 5946 5945 5945 5944 5943 5942 5942
5930 5931 5929 5930 5930 5930 5930 5929 5927 5924 5919 5915 5907 5907 5910 5917 5921 5925 5928 5931 5932 5931 5931 5931 5934 5934 5935 5936 5938 5939 5940 5941 5942 5942 5942 5943 5944 5945 5946 5945 5946 5946 5946 5945 5945 5945 5945 5944 5943
5928 5929 5930 5930 5930 5930 5930 5929 5927 5925 5920 5916 5910 5907 5909 5916 5919 5924 5929 5932 5934 5933 5934 5933 5934 5933 5934 5936 5936 5938 5938 5939 5939 5940 5940 5941 5941 5942 5944 5944 5946 5946 5946 5945 5944 5944 5944 5944 5943
5925 5927 5929 5929 5929 5930 5930 5928 5928 5925 5922 5918 5916 5908 5907 5916 5922 5925 5927 5930 5931 5932 5932 5932 5932 5932 5932 5934 5935 5936 5937 5937 5938 5937 5937 5938 5940 5940 5941 5942 5943 5944 5943 5943 5943 5943 5943 5943 5944
5921 5924 5926 5928 5929 5930 5931 5930 5928 5927 5924 5922 5920 5920 5922 5923 5924 5926 5928 5928 5928 5929 5930 5932 5932 5931 5931 5931 5934 5934 5932 5934 5935 5934 5933 5933 5935 5936 5938 5940 5941 5942 5941 5941 5941 5941 5940 5940 5942
5920 5922 5926 5927 5929 5930 5930 5931 5927 5927 5927 5925 5925 5923 5922 5922 5924 5925 5926 5925 5925 5926 5927 5928 5929 5929 5930 5929 5929 5931 5929 5929 5930 5930 5930 5929 5931 5932 5933 5934 5935 5937 5939 5939 5938 5938 5938 5937 5939